AVA104 SPZO-SKBO

Flight info

Callsign AVA104
Flight time 2h 45m
Altitude 36000
Route CEMIL DCT TOMIX UL300 IQT/N0455F370 UL300 POVSO/N0452F380 DCT GIR GIR5W
Aircraft A319/M-SDE3FGHIRWY/LB1

Departure

Time 2026-04-24 21:15
Airport Alejandro Velasco Astete International Airport (SPZO)

Arrival

Time 2026-04-25 00:00
Airport El Dorado International Airport (SKBO)
Time Latitude Longitude Altitude Speed Heading
2026-04-24 20:30 -13.53779 -71.94414 10817 ft 0 kts 116°
2026-04-24 21:04 -13.53774 -71.94424 10816 ft 4 kts 120°
2026-04-24 21:04 -13.53759 -71.94446 10816 ft 4 kts 136°
2026-04-24 21:05 -13.53737 -71.94461 10816 ft 4 kts 161°
2026-04-24 21:05 -13.53711 -71.94465 10816 ft 4 kts 188°
2026-04-24 21:05 -13.53685 -71.94457 10814 ft 4 kts 210°
2026-04-24 21:05 -13.53665 -71.94441 10816 ft 4 kts 232°
2026-04-24 21:06 -13.53655 -71.94420 10816 ft 2 kts 275°
2026-04-24 21:06 -13.53655 -71.94418 10816 ft 0 kts 276°
2026-04-24 21:09 -13.53653 -71.94432 10816 ft 5 kts 276°
2026-04-24 21:09 -13.53647 -71.94484 10816 ft 10 kts 276°
2026-04-24 21:09 -13.53639 -71.94569 10818 ft 13 kts 276°
2026-04-24 21:10 -13.53630 -71.94658 10824 ft 12 kts 276°
2026-04-24 21:10 -13.53621 -71.94744 10830 ft 12 kts 276°
2026-04-24 21:10 -13.53612 -71.94838 10835 ft 14 kts 276°
2026-04-24 21:10 -13.53601 -71.94940 10843 ft 14 kts 276°
2026-04-24 21:11 -13.53591 -71.95039 10853 ft 13 kts 276°
2026-04-24 21:11 -13.53582 -71.95130 10859 ft 13 kts 275°
2026-04-24 21:11 -13.53573 -71.95226 10863 ft 14 kts 276°
2026-04-24 21:11 -13.53564 -71.95317 10864 ft 12 kts 275°
2026-04-24 21:12 -13.53556 -71.95399 10867 ft 11 kts 276°
2026-04-24 21:12 -13.53541 -71.95464 10869 ft 8 kts 321°
2026-04-24 21:12 -13.53501 -71.95474 10864 ft 6 kts 19°
2026-04-24 21:12 -13.53467 -71.95454 10868 ft 5 kts 34°
2026-04-24 21:13 -13.53441 -71.95436 10869 ft 5 kts 35°
2026-04-24 21:13 -13.53419 -71.95416 10869 ft 4 kts 62°
2026-04-24 21:13 -13.53419 -71.95402 10867 ft 0 kts 94°
2026-04-24 21:14 -13.53421 -71.95380 10865 ft 20 kts 95°
2026-04-24 21:14 -13.53461 -71.94986 10848 ft 91 kts 96°
2026-04-24 21:14 -13.53549 -71.94125 10813 ft 150 kts 96°
2026-04-24 21:15 -13.53678 -71.92872 10782 ft 197 kts 98°
2026-04-24 21:15 -13.53825 -71.91486 11561 ft 192 kts 96°
2026-04-24 21:15 -13.53967 -71.90128 12122 ft 194 kts 93°
2026-04-24 21:15 -13.54255 -71.88706 12286 ft 210 kts 106°
2026-04-24 21:16 -13.54846 -71.87311 12581 ft 221 kts 114°
2026-04-24 21:16 -13.55526 -71.85859 12975 ft 230 kts 110°
2026-04-24 21:16 -13.56087 -71.84248 13155 ft 245 kts 108°
2026-04-24 21:16 -13.56657 -71.82555 13276 ft 263 kts 108°
2026-04-24 21:17 -13.57336 -71.80765 13640 ft 272 kts 110°
2026-04-24 21:17 -13.58055 -71.78932 13930 ft 278 kts 110°
2026-04-24 21:17 -13.58788 -71.77068 14326 ft 283 kts 110°
2026-04-24 21:17 -13.59577 -71.75198 14845 ft 286 kts 116°
2026-04-24 21:18 -13.60617 -71.73474 15398 ft 287 kts 126°
2026-04-24 21:18 -13.61920 -71.71914 15985 ft 288 kts 133°
2026-04-24 21:18 -13.63309 -71.70424 16588 ft 288 kts 134°
2026-04-24 21:18 -13.64701 -71.68926 17191 ft 289 kts 132°
2026-04-24 21:19 -13.65910 -71.67233 17369 ft 305 kts 117°
2026-04-24 21:19 -13.66674 -71.65150 17598 ft 318 kts 103°
2026-04-24 21:19 -13.66871 -71.62850 17972 ft 327 kts 88°
2026-04-24 21:19 -13.66473 -71.60553 18438 ft 334 kts 72°
2026-04-24 21:20 -13.64230 -71.56304 19443 ft 341 kts 59°
2026-04-24 21:20 -13.63061 -71.54204 19930 ft 343 kts 65°
2026-04-24 21:20 -13.62076 -71.51958 20440 ft 345 kts 67°
2026-04-24 21:21 -13.61091 -71.49696 20951 ft 347 kts 67°
2026-04-24 21:21 -13.60097 -71.47417 21454 ft 349 kts 67°
2026-04-24 21:21 -13.59111 -71.45157 21961 ft 351 kts 67°
2026-04-24 21:21 -13.58104 -71.42858 22458 ft 354 kts 66°
2026-04-24 21:22 -13.56878 -71.40656 22972 ft 358 kts 52°
2026-04-24 21:22 -13.55051 -71.38903 23444 ft 363 kts 34°
2026-04-24 21:22 -13.52741 -71.37808 23866 ft 368 kts 15°
2026-04-24 21:22 -13.50215 -71.37528 24232 ft 373 kts 357°
2026-04-24 21:23 -13.47614 -71.37992 24387 ft 385 kts 349°
2026-04-24 21:23 -13.44938 -71.38574 24493 ft 397 kts 350°
2026-04-24 21:23 -13.42189 -71.39148 24613 ft 409 kts 350°
2026-04-24 21:23 -13.39362 -71.39723 24721 ft 419 kts 350°
2026-04-24 21:24 -13.36495 -71.40303 24829 ft 429 kts 350°
2026-04-24 21:24 -13.33544 -71.40903 25023 ft 435 kts 350°
2026-04-24 21:24 -13.30559 -71.41513 25309 ft 438 kts 350°
2026-04-24 21:24 -13.27585 -71.42125 25626 ft 441 kts 350°
2026-04-24 21:25 -13.24555 -71.42752 25950 ft 443 kts 350°
2026-04-24 21:25 -13.21520 -71.43378 26261 ft 445 kts 350°
2026-04-24 21:25 -13.18473 -71.44008 26600 ft 447 kts 350°
2026-04-24 21:25 -13.15410 -71.44642 26964 ft 449 kts 350°
2026-04-24 21:26 -13.12362 -71.45271 27289 ft 451 kts 350°
2026-04-24 21:26 -13.09257 -71.45909 27579 ft 454 kts 350°
2026-04-24 21:26 -13.06152 -71.46548 27903 ft 456 kts 350°
2026-04-24 21:26 -13.03067 -71.47184 28221 ft 458 kts 350°
2026-04-24 21:27 -12.99932 -71.47833 28537 ft 460 kts 350°
2026-04-24 21:27 -12.96783 -71.48485 28869 ft 462 kts 350°
2026-04-24 21:27 -12.93610 -71.49143 29134 ft 464 kts 350°
2026-04-24 21:27 -12.90424 -71.49800 29427 ft 466 kts 350°
2026-04-24 21:28 -12.87277 -71.50450 29721 ft 468 kts 350°
2026-04-24 21:28 -12.84063 -71.51113 30015 ft 470 kts 350°
2026-04-24 21:28 -12.80846 -71.51776 30247 ft 472 kts 350°
2026-04-24 21:28 -12.77607 -71.52444 30502 ft 474 kts 350°
2026-04-24 21:29 -12.74361 -71.53113 30784 ft 474 kts 350°
2026-04-24 21:29 -12.71168 -71.53768 31166 ft 472 kts 350°
2026-04-24 21:29 -12.67936 -71.54428 31529 ft 470 kts 350°
2026-04-24 21:29 -12.64721 -71.55085 31906 ft 469 kts 350°
2026-04-24 21:30 -12.61566 -71.55731 32285 ft 467 kts 350°
2026-04-24 21:30 -12.58374 -71.56386 32712 ft 465 kts 350°
2026-04-24 21:30 -12.55204 -71.57036 33096 ft 463 kts 350°
2026-04-24 21:30 -12.52040 -71.57684 33499 ft 461 kts 350°
2026-04-24 21:31 -12.48923 -71.58324 33899 ft 459 kts 349°
2026-04-24 21:31 -12.45781 -71.58971 34246 ft 458 kts 349°
2026-04-24 21:31 -12.42685 -71.59611 34578 ft 457 kts 349°
2026-04-24 21:31 -12.39567 -71.60254 34910 ft 456 kts 349°
2026-04-24 21:32 -12.36455 -71.60894 35284 ft 454 kts 350°
2026-04-24 21:32 -12.33395 -71.61523 35636 ft 452 kts 351°
2026-04-24 21:32 -12.30309 -71.62152 35905 ft 452 kts 350°
2026-04-24 21:33 -12.24150 -71.63415 35963 ft 448 kts 350°
2026-04-24 21:33 -12.18056 -71.64668 35963 ft 450 kts 350°
2026-04-24 21:34 -12.11905 -71.65933 35946 ft 454 kts 350°
2026-04-24 21:34 -12.05679 -71.67213 35949 ft 456 kts 350°
2026-04-24 21:35 -11.99482 -71.68479 35940 ft 456 kts 350°
2026-04-24 21:35 -11.93244 -71.69752 35937 ft 456 kts 350°
2026-04-24 21:36 -11.87057 -71.71018 35944 ft 456 kts 350°
2026-04-24 21:36 -11.80816 -71.72300 35936 ft 456 kts 350°
2026-04-24 21:37 -11.74582 -71.73578 35935 ft 457 kts 350°
2026-04-24 21:37 -11.68382 -71.74849 35935 ft 457 kts 350°
2026-04-24 21:38 -11.62128 -71.76125 35937 ft 457 kts 350°
2026-04-24 21:38 -11.55900 -71.77400 35940 ft 458 kts 350°
2026-04-24 21:39 -11.49631 -71.78680 35940 ft 458 kts 350°
2026-04-24 21:39 -11.43390 -71.79953 35943 ft 458 kts 350°
2026-04-24 21:40 -11.37111 -71.81235 35936 ft 459 kts 350°
2026-04-24 21:40 -11.30862 -71.82509 35941 ft 460 kts 350°
2026-04-24 21:41 -11.24605 -71.83790 35941 ft 460 kts 350°
2026-04-24 21:41 -11.18298 -71.85079 35942 ft 460 kts 350°
2026-04-24 21:42 -11.12038 -71.86353 35943 ft 460 kts 350°
2026-04-24 21:42 -11.05741 -71.87634 35945 ft 460 kts 350°
2026-04-24 21:43 -10.99466 -71.88914 35943 ft 460 kts 350°
2026-04-24 21:43 -10.94234 -71.89979 35942 ft 460 kts 350°
2026-04-24 21:44 -10.86917 -71.91471 35941 ft 460 kts 351°
2026-04-24 21:44 -10.81685 -71.92531 35945 ft 460 kts 351°
2026-04-24 21:45 -10.75391 -71.93808 35943 ft 460 kts 350°
2026-04-24 21:45 -10.69128 -71.95090 35939 ft 460 kts 350°
2026-04-24 21:46 -10.62859 -71.96368 35939 ft 461 kts 350°
2026-04-24 21:46 -10.56558 -71.97640 35940 ft 461 kts 351°
2026-04-24 21:47 -10.50286 -71.98907 35944 ft 461 kts 350°
2026-04-24 21:47 -10.43965 -72.00192 35949 ft 462 kts 350°
2026-04-24 21:48 -10.37697 -72.01467 35949 ft 462 kts 350°
2026-04-24 21:48 -10.31373 -72.02753 35950 ft 462 kts 350°
2026-04-24 21:49 -10.25088 -72.04024 35947 ft 462 kts 350°
2026-04-24 21:49 -10.18802 -72.05293 35952 ft 462 kts 350°
2026-04-24 21:50 -10.12483 -72.06567 35953 ft 462 kts 350°
2026-04-24 21:50 -10.06166 -72.07850 35958 ft 462 kts 350°
2026-04-24 21:51 -9.99885 -72.09121 35950 ft 462 kts 350°
2026-04-24 21:51 -9.93569 -72.10383 35949 ft 462 kts 350°
2026-04-24 21:52 -9.87255 -72.11632 35951 ft 462 kts 350°
2026-04-24 21:52 -9.80982 -72.12862 35951 ft 462 kts 350°
2026-04-24 21:53 -9.74652 -72.14119 35952 ft 462 kts 350°
2026-04-24 21:53 -9.68358 -72.15370 35944 ft 462 kts 350°
2026-04-24 21:54 -9.62033 -72.16620 35938 ft 462 kts 350°
2026-04-24 21:54 -9.55704 -72.17866 35938 ft 463 kts 350°
2026-04-24 21:55 -9.49419 -72.19113 35938 ft 463 kts 351°
2026-04-24 21:55 -9.43073 -72.20325 35938 ft 463 kts 351°
2026-04-24 21:56 -9.36760 -72.21500 35941 ft 463 kts 351°
2026-04-24 21:56 -9.30399 -72.22699 35940 ft 463 kts 351°
2026-04-24 21:57 -9.24089 -72.23897 35942 ft 463 kts 351°
2026-04-24 21:57 -9.17730 -72.25097 35939 ft 463 kts 351°
2026-04-24 21:58 -9.11408 -72.26280 35945 ft 463 kts 351°
2026-04-24 21:58 -9.05086 -72.27482 35942 ft 463 kts 351°
2026-04-24 21:59 -8.98787 -72.28681 35946 ft 462 kts 351°
2026-04-24 21:59 -8.92447 -72.29904 35944 ft 463 kts 350°
2026-04-24 22:00 -8.86157 -72.31204 35947 ft 463 kts 350°
2026-04-24 22:00 -8.79838 -72.32526 35939 ft 463 kts 350°
2026-04-24 22:01 -8.73540 -72.33824 35939 ft 463 kts 350°
2026-04-24 22:01 -8.67255 -72.35099 35938 ft 463 kts 350°
2026-04-24 22:02 -8.60927 -72.36392 35940 ft 463 kts 350°
2026-04-24 22:02 -8.54622 -72.37686 35936 ft 463 kts 350°
2026-04-24 22:03 -8.48292 -72.38987 35935 ft 463 kts 350°
2026-04-24 22:03 -8.41996 -72.40275 35933 ft 463 kts 350°
2026-04-24 22:04 -8.35644 -72.41573 35932 ft 464 kts 350°
2026-04-24 22:04 -8.29346 -72.42856 35933 ft 464 kts 350°
2026-04-24 22:05 -8.23007 -72.44163 35929 ft 464 kts 350°
2026-04-24 22:05 -8.16654 -72.45468 35928 ft 465 kts 350°
2026-04-24 22:06 -8.10329 -72.46752 35926 ft 465 kts 351°
2026-04-24 22:06 -8.04006 -72.48037 35926 ft 465 kts 350°
2026-04-24 22:07 -7.97666 -72.49333 35928 ft 465 kts 350°
2026-04-24 22:07 -7.91291 -72.50635 35924 ft 466 kts 350°
2026-04-24 22:08 -7.84965 -72.51927 35927 ft 466 kts 350°
2026-04-24 22:08 -7.78621 -72.53219 35924 ft 466 kts 350°
2026-04-24 22:09 -7.72248 -72.54520 35922 ft 466 kts 350°
2026-04-24 22:09 -7.65870 -72.55812 35922 ft 466 kts 351°
2026-04-24 22:10 -7.59514 -72.57067 35924 ft 466 kts 351°
2026-04-24 22:10 -7.53174 -72.58317 35925 ft 467 kts 351°
2026-04-24 22:11 -7.46787 -72.59583 35925 ft 467 kts 351°
2026-04-24 22:11 -7.40430 -72.60850 35925 ft 467 kts 351°
2026-04-24 22:12 -7.34069 -72.62121 35925 ft 467 kts 351°
2026-04-24 22:12 -7.27699 -72.63383 35924 ft 467 kts 351°
2026-04-24 22:13 -7.21300 -72.64647 35911 ft 468 kts 351°
2026-04-24 22:13 -7.14918 -72.65918 35900 ft 469 kts 351°
2026-04-24 22:14 -7.08483 -72.67199 35902 ft 470 kts 351°
2026-04-24 22:14 -7.02067 -72.68469 35906 ft 471 kts 351°
2026-04-24 22:15 -6.95650 -72.69740 35904 ft 472 kts 351°
2026-04-24 22:15 -6.89202 -72.71016 35915 ft 472 kts 351°
2026-04-24 22:16 -6.82747 -72.72297 35910 ft 472 kts 351°
2026-04-24 22:16 -6.76314 -72.73569 35909 ft 473 kts 351°
2026-04-24 22:17 -6.69838 -72.74853 35910 ft 473 kts 351°
2026-04-24 22:17 -6.63406 -72.76120 35915 ft 473 kts 351°
2026-04-24 22:18 -6.56927 -72.77404 35911 ft 473 kts 351°
2026-04-24 22:18 -6.50483 -72.78685 35918 ft 473 kts 351°
2026-04-24 22:19 -6.43996 -72.79967 35914 ft 473 kts 351°
2026-04-24 22:19 -6.37553 -72.81238 35919 ft 474 kts 351°
2026-04-24 22:20 -6.31070 -72.82521 35914 ft 474 kts 351°
2026-04-24 22:20 -6.24617 -72.83797 35914 ft 474 kts 351°
2026-04-24 22:21 -6.18177 -72.85074 35915 ft 474 kts 351°
2026-04-24 22:21 -6.11679 -72.86361 35912 ft 474 kts 352°
2026-04-24 22:22 -6.05216 -72.87643 35903 ft 475 kts 352°
2026-04-24 22:22 -5.98717 -72.88925 35905 ft 475 kts 352°
2026-04-24 22:23 -5.92264 -72.90191 35909 ft 475 kts 352°
2026-04-24 22:23 -5.85757 -72.91478 35908 ft 475 kts 352°
2026-04-24 22:24 -5.79278 -72.92766 35907 ft 475 kts 352°
2026-04-24 22:24 -5.72816 -72.94041 35910 ft 475 kts 352°
2026-04-24 22:25 -5.66308 -72.95318 35904 ft 475 kts 352°
2026-04-24 22:25 -5.59845 -72.96588 35907 ft 475 kts 351°
2026-04-24 22:26 -5.53330 -72.97863 35910 ft 475 kts 352°
2026-04-24 22:26 -5.46838 -72.99127 35910 ft 475 kts 352°
2026-04-24 22:27 -5.40379 -73.00392 35911 ft 474 kts 352°
2026-04-24 22:27 -5.33877 -73.01660 35912 ft 474 kts 352°
2026-04-24 22:28 -5.27430 -73.02911 35912 ft 474 kts 352°
2026-04-24 22:28 -5.20965 -73.04169 35908 ft 474 kts 352°
2026-04-24 22:29 -5.11222 -73.06074 35909 ft 474 kts 352°
2026-04-24 22:29 -5.04782 -73.07334 35903 ft 474 kts 352°
2026-04-24 22:30 -4.98291 -73.08597 35904 ft 475 kts 352°
2026-04-24 22:30 -4.91797 -73.09862 35901 ft 475 kts 352°
2026-04-24 22:31 -4.85337 -73.11121 35899 ft 475 kts 352°
2026-04-24 22:31 -4.78814 -73.12390 35901 ft 475 kts 352°
2026-04-24 22:32 -4.72347 -73.13651 35901 ft 475 kts 352°
2026-04-24 22:32 -4.65874 -73.14914 35903 ft 475 kts 352°
2026-04-24 22:33 -4.60465 -73.15970 35902 ft 475 kts 352°
2026-04-24 22:33 -4.52901 -73.17444 35903 ft 475 kts 352°
2026-04-24 22:34 -4.47501 -73.18492 35904 ft 475 kts 352°
2026-04-24 22:34 -4.41005 -73.19756 35904 ft 475 kts 352°
2026-04-24 22:35 -4.34543 -73.21014 35908 ft 475 kts 352°
2026-04-24 22:35 -4.28047 -73.22277 35910 ft 474 kts 352°
2026-04-24 22:36 -4.21593 -73.23536 35912 ft 474 kts 352°
2026-04-24 22:36 -4.15095 -73.24803 35911 ft 474 kts 352°
2026-04-24 22:37 -4.08641 -73.26055 35910 ft 474 kts 352°
2026-04-24 22:37 -4.02184 -73.27307 35909 ft 474 kts 352°
2026-04-24 22:38 -3.95691 -73.28575 35908 ft 474 kts 352°
2026-04-24 22:38 -3.89246 -73.29830 35907 ft 474 kts 352°
2026-04-24 22:39 -3.82748 -73.31089 35903 ft 474 kts 352°
2026-04-24 22:39 -3.76263 -73.32256 35901 ft 473 kts 354°
2026-04-24 22:40 -3.69738 -73.33024 35902 ft 473 kts 357°
2026-04-24 22:40 -3.63179 -73.33656 35913 ft 473 kts 357°
2026-04-24 22:41 -3.56649 -73.34361 35916 ft 472 kts 356°
2026-04-24 22:41 -3.50113 -73.35137 35916 ft 472 kts 356°
2026-04-24 22:42 -3.43619 -73.35917 35915 ft 472 kts 356°
2026-04-24 22:42 -3.37081 -73.36678 35914 ft 471 kts 356°
2026-04-24 22:43 -3.30591 -73.37431 35916 ft 471 kts 356°
2026-04-24 22:43 -3.24067 -73.38191 35914 ft 471 kts 356°
2026-04-24 22:44 -3.17572 -73.38943 35911 ft 471 kts 356°
2026-04-24 22:44 -3.11035 -73.39701 35911 ft 471 kts 356°
2026-04-24 22:45 -3.04541 -73.40459 35913 ft 471 kts 356°
2026-04-24 22:45 -2.98045 -73.41212 35913 ft 471 kts 356°
2026-04-24 22:46 -2.91511 -73.41971 35911 ft 471 kts 356°
2026-04-24 22:46 -2.84996 -73.42724 35912 ft 471 kts 356°
2026-04-24 22:47 -2.78497 -73.43475 35911 ft 471 kts 356°
2026-04-24 22:47 -2.71959 -73.44234 35910 ft 472 kts 356°
2026-04-24 22:48 -2.65464 -73.44991 35912 ft 472 kts 356°
2026-04-24 22:48 -2.58925 -73.45751 35913 ft 472 kts 356°
2026-04-24 22:49 -2.52416 -73.46506 35911 ft 472 kts 356°
2026-04-24 22:49 -2.45921 -73.47260 35911 ft 472 kts 356°
2026-04-24 22:50 -2.39370 -73.48026 35913 ft 472 kts 356°
2026-04-24 22:50 -2.32848 -73.48788 35913 ft 472 kts 356°
2026-04-24 22:51 -2.26304 -73.49550 35912 ft 472 kts 356°
2026-04-24 22:51 -2.19799 -73.50301 35913 ft 472 kts 356°
2026-04-24 22:52 -2.13246 -73.51061 35912 ft 473 kts 356°
2026-04-24 22:52 -2.06729 -73.51818 35913 ft 473 kts 356°
2026-04-24 22:53 -2.00211 -73.52571 35911 ft 473 kts 356°
2026-04-24 22:53 -1.93646 -73.53330 35912 ft 473 kts 356°
2026-04-24 22:54 -1.87133 -73.54094 35910 ft 473 kts 356°
2026-04-24 22:54 -1.80579 -73.54860 35910 ft 473 kts 356°
2026-04-24 22:55 -1.74051 -73.55612 35910 ft 473 kts 356°
2026-04-24 22:55 -1.67535 -73.56363 35910 ft 473 kts 356°
2026-04-24 22:56 -1.60978 -73.57125 35911 ft 473 kts 356°
2026-04-24 22:56 -1.54459 -73.57885 35911 ft 473 kts 356°
2026-04-24 22:57 -1.47899 -73.58640 35911 ft 473 kts 356°
2026-04-24 22:57 -1.41338 -73.59391 35908 ft 474 kts 356°
2026-04-24 22:58 -1.34825 -73.60152 35909 ft 474 kts 356°
2026-04-24 22:58 -1.28263 -73.60912 35907 ft 474 kts 356°
2026-04-24 22:59 -1.21706 -73.61677 35907 ft 474 kts 356°
2026-04-24 23:00 -1.11895 -73.62813 35907 ft 474 kts 356°
2026-04-24 23:00 -1.05359 -73.63570 35903 ft 474 kts 356°
2026-04-24 23:01 -0.98791 -73.64335 35902 ft 475 kts 356°
2026-04-24 23:01 -0.92211 -73.65100 35902 ft 475 kts 356°
2026-04-24 23:02 -0.85652 -73.65852 35910 ft 475 kts 356°
2026-04-24 23:02 -0.79123 -73.66598 35913 ft 474 kts 356°
2026-04-24 23:03 -0.72553 -73.67352 35909 ft 474 kts 355°
2026-04-24 23:03 -0.66026 -73.68113 35912 ft 473 kts 355°
2026-04-24 23:04 -0.59476 -73.68874 35913 ft 473 kts 355°
2026-04-24 23:04 -0.52929 -73.69632 35911 ft 473 kts 355°
2026-04-24 23:05 -0.46417 -73.70394 35912 ft 473 kts 355°
2026-04-24 23:05 -0.39877 -73.71153 35914 ft 473 kts 355°
2026-04-24 23:06 -0.33369 -73.71905 35910 ft 473 kts 355°
2026-04-24 23:06 -0.26812 -73.72660 35911 ft 473 kts 355°
2026-04-24 23:07 -0.20278 -73.73419 35909 ft 473 kts 355°
2026-04-24 23:07 -0.13767 -73.74177 35908 ft 472 kts 355°
2026-04-24 23:08 -0.07255 -73.74931 35910 ft 472 kts 355°
2026-04-24 23:08 -0.00712 -73.75684 35911 ft 472 kts 355°
2026-04-24 23:09 0.05797 -73.76438 35911 ft 472 kts 355°
2026-04-24 23:09 0.12351 -73.77198 35911 ft 473 kts 355°
2026-04-24 23:10 0.18893 -73.77980 35912 ft 473 kts 352°
2026-04-24 23:10 0.25272 -73.79592 35912 ft 475 kts 347°
2026-04-24 23:11 0.31635 -73.81315 35910 ft 475 kts 347°
2026-04-24 23:11 0.38034 -73.83059 35907 ft 475 kts 347°
2026-04-24 23:12 0.44437 -73.84800 35908 ft 476 kts 347°
2026-04-24 23:12 0.50811 -73.86525 35908 ft 476 kts 347°
2026-04-24 23:13 0.57217 -73.88257 35908 ft 476 kts 347°
2026-04-24 23:13 0.63584 -73.89978 35910 ft 476 kts 347°
2026-04-24 23:14 0.69988 -73.91708 35914 ft 477 kts 347°
2026-04-24 23:14 0.76403 -73.93452 35910 ft 477 kts 347°
2026-04-24 23:15 0.82777 -73.95182 35908 ft 477 kts 347°
2026-04-24 23:15 0.89216 -73.96928 35909 ft 478 kts 347°
2026-04-24 23:16 0.95616 -73.98657 35911 ft 478 kts 347°
2026-04-24 23:16 1.02013 -74.00387 35912 ft 478 kts 347°
2026-04-24 23:17 1.08439 -74.02132 35918 ft 478 kts 347°
2026-04-24 23:17 1.14873 -74.03875 35918 ft 477 kts 347°
2026-04-24 23:18 1.21247 -74.05600 35923 ft 477 kts 347°
2026-04-24 23:18 1.27671 -74.07340 35924 ft 476 kts 347°
2026-04-24 23:19 1.34050 -74.09073 35923 ft 476 kts 347°
2026-04-24 23:19 1.40422 -74.10802 35923 ft 476 kts 347°
2026-04-24 23:20 1.46839 -74.12545 35919 ft 476 kts 347°
2026-04-24 23:20 1.53200 -74.14272 35910 ft 476 kts 347°
2026-04-24 23:21 1.59623 -74.16012 35908 ft 477 kts 347°
2026-04-24 23:21 1.66015 -74.17751 35911 ft 477 kts 347°
2026-04-24 23:22 1.72397 -74.19486 35913 ft 478 kts 347°
2026-04-24 23:22 1.78833 -74.21227 35913 ft 478 kts 347°
2026-04-24 23:23 1.85216 -74.22953 35917 ft 478 kts 347°
2026-04-24 23:23 1.91653 -74.24701 35921 ft 478 kts 347°
2026-04-24 23:24 1.97015 -74.26155 35921 ft 478 kts 347°
2026-04-24 23:24 2.03398 -74.27887 35922 ft 478 kts 347°
2026-04-24 23:25 2.09838 -74.29632 35918 ft 478 kts 347°
2026-04-24 23:25 2.16223 -74.31363 35918 ft 478 kts 347°
2026-04-24 23:26 2.22652 -74.33112 35914 ft 478 kts 346°
2026-04-24 23:26 2.29041 -74.34849 35913 ft 478 kts 346°
2026-04-24 23:27 2.35470 -74.36592 35936 ft 478 kts 346°
2026-04-24 23:27 2.41898 -74.38335 35937 ft 478 kts 346°
2026-04-24 23:28 2.48293 -74.40073 35932 ft 478 kts 346°
2026-04-24 23:28 2.54730 -74.41816 35954 ft 478 kts 346°
2026-04-24 23:29 2.61120 -74.43547 35953 ft 478 kts 346°
2026-04-24 23:29 2.67555 -74.45296 35968 ft 478 kts 346°
2026-04-24 23:30 2.73998 -74.47048 35971 ft 478 kts 346°
2026-04-24 23:30 2.80413 -74.48787 35987 ft 479 kts 346°
2026-04-24 23:31 2.86851 -74.50537 36015 ft 479 kts 346°
2026-04-24 23:31 2.93264 -74.52280 36014 ft 479 kts 346°
2026-04-24 23:32 2.99713 -74.54032 36020 ft 479 kts 346°
2026-04-24 23:32 3.06126 -74.55773 36014 ft 480 kts 346°
2026-04-24 23:33 3.12594 -74.57528 36034 ft 480 kts 346°
2026-04-24 23:33 3.19027 -74.59276 36035 ft 480 kts 346°
2026-04-24 23:34 3.25462 -74.61022 36056 ft 480 kts 346°
2026-04-24 23:34 3.31922 -74.62781 36060 ft 481 kts 346°
2026-04-24 23:35 3.38392 -74.64546 36037 ft 480 kts 346°
2026-04-24 23:35 3.44819 -74.66297 36041 ft 480 kts 346°
2026-04-24 23:36 3.51285 -74.68049 36039 ft 480 kts 346°
2026-04-24 23:36 3.57743 -74.69805 36046 ft 481 kts 346°
2026-04-24 23:37 3.64161 -74.71559 36050 ft 481 kts 346°
2026-04-24 23:37 3.73872 -74.74195 36091 ft 481 kts 346°
2026-04-24 23:38 3.80320 -74.75959 36089 ft 481 kts 346°
2026-04-24 23:38 3.86737 -74.77645 35472 ft 476 kts 347°
2026-04-24 23:39 3.89981 -74.78516 34420 ft 486 kts 346°
2026-04-24 23:39 3.93296 -74.79425 33314 ft 497 kts 346°
2026-04-24 23:39 3.96610 -74.80345 32206 ft 505 kts 346°
2026-04-24 23:39 4.00022 -74.81290 31270 ft 506 kts 346°
2026-04-24 23:40 4.03395 -74.82219 30349 ft 499 kts 346°
2026-04-24 23:40 4.06743 -74.83140 29200 ft 495 kts 346°
2026-04-24 23:40 4.10024 -74.84041 28057 ft 490 kts 346°
2026-04-24 23:40 4.13310 -74.84939 27242 ft 479 kts 346°
2026-04-24 23:41 4.16448 -74.85788 27098 ft 453 kts 347°
2026-04-24 23:41 4.19475 -74.86254 26615 ft 439 kts 358°
2026-04-24 23:41 4.22502 -74.86133 25974 ft 430 kts
2026-04-24 23:41 4.25453 -74.85731 25561 ft 425 kts
2026-04-24 23:42 4.28377 -74.85341 24560 ft 427 kts
2026-04-24 23:42 4.31319 -74.84955 23975 ft 418 kts
2026-04-24 23:42 4.34193 -74.84581 23140 ft 418 kts
2026-04-24 23:42 4.37099 -74.84204 22779 ft 435 kts
2026-04-24 23:43 4.40172 -74.83804 22273 ft 448 kts
2026-04-24 23:43 4.43281 -74.83396 21788 ft 449 kts
2026-04-24 23:43 4.46341 -74.82993 21321 ft 446 kts
2026-04-24 23:43 4.49427 -74.82584 21107 ft 445 kts
2026-04-24 23:44 4.52495 -74.82177 20811 ft 443 kts
2026-04-24 23:44 4.55551 -74.81773 20315 ft 439 kts
2026-04-24 23:44 4.58538 -74.81378 19842 ft 436 kts
2026-04-24 23:44 4.61530 -74.80985 19367 ft 431 kts
2026-04-24 23:45 4.64495 -74.80594 18875 ft 426 kts
2026-04-24 23:45 4.67424 -74.80208 18312 ft 421 kts
2026-04-24 23:45 4.70288 -74.79830 17559 ft 417 kts
2026-04-24 23:45 4.73117 -74.79274 17130 ft 409 kts 17°
2026-04-24 23:46 4.75634 -74.78063 16907 ft 395 kts 32°
2026-04-24 23:46 4.77676 -74.76293 16667 ft 383 kts 48°
2026-04-24 23:46 4.79134 -74.74102 16418 ft 372 kts 64°
2026-04-24 23:46 4.80077 -74.71717 16172 ft 362 kts 69°
2026-04-24 23:47 4.80935 -74.69405 15944 ft 352 kts 69°
2026-04-24 23:47 4.81775 -74.67128 15709 ft 343 kts 69°
2026-04-24 23:47 4.82595 -74.64909 15471 ft 336 kts 69°
2026-04-24 23:47 4.83403 -74.62730 15332 ft 330 kts 69°
2026-04-24 23:48 4.84206 -74.60573 15276 ft 330 kts 69°
2026-04-24 23:48 4.85012 -74.58411 15239 ft 330 kts 69°
2026-04-24 23:48 4.85806 -74.56281 15190 ft 329 kts 69°
2026-04-24 23:48 4.86608 -74.54127 15142 ft 329 kts 69°
2026-04-24 23:49 4.87410 -74.51975 15099 ft 328 kts 68°
2026-04-24 23:49 4.88209 -74.49833 15023 ft 328 kts 69°
2026-04-24 23:49 4.89007 -74.47687 14898 ft 327 kts 69°
2026-04-24 23:49 4.89771 -74.45573 14907 ft 327 kts 73°
2026-04-24 23:50 4.89950 -74.43346 14916 ft 317 kts 99°
2026-04-24 23:50 4.89213 -74.41321 14928 ft 305 kts 124°
2026-04-24 23:50 4.87763 -74.39804 14932 ft 299 kts 148°
2026-04-24 23:50 4.85940 -74.38804 14943 ft 298 kts 154°
2026-04-24 23:51 4.84119 -74.37864 14949 ft 293 kts 154°
2026-04-24 23:51 4.82342 -74.36945 14952 ft 284 kts 155°
2026-04-24 23:51 4.80572 -74.36032 14560 ft 289 kts 155°
2026-04-24 23:51 4.78747 -74.35091 13906 ft 297 kts 154°
2026-04-24 23:52 4.76965 -74.34163 13676 ft 284 kts 152°
2026-04-24 23:52 4.75269 -74.33198 13696 ft 277 kts 150°
2026-04-24 23:52 4.73628 -74.32209 13692 ft 269 kts 150°
2026-04-24 23:52 4.72063 -74.31251 13702 ft 259 kts 150°
2026-04-24 23:53 4.70578 -74.30340 13694 ft 245 kts 150°
2026-04-24 23:53 4.69156 -74.29473 13689 ft 235 kts 150°
2026-04-24 23:53 4.67815 -74.28541 13692 ft 234 kts 139°
2026-04-24 23:53 4.66634 -74.27444 13704 ft 234 kts 138°
2026-04-24 23:54 4.65437 -74.26345 13699 ft 232 kts 139°
2026-04-24 23:54 4.64243 -74.25255 13705 ft 232 kts 138°
2026-04-24 23:54 4.63087 -74.24108 13699 ft 233 kts 129°
2026-04-24 23:54 4.62156 -74.22794 13371 ft 233 kts 125°
2026-04-24 23:55 4.61247 -74.21473 13053 ft 227 kts 125°
2026-04-24 23:55 4.60367 -74.20188 12755 ft 219 kts 125°
2026-04-24 23:55 4.59516 -74.18948 12470 ft 211 kts 125°
2026-04-24 23:55 4.58705 -74.17769 12211 ft 204 kts 126°
2026-04-24 23:56 4.57979 -74.16553 11939 ft 202 kts 114°
2026-04-24 23:56 4.57605 -74.15201 11675 ft 201 kts 98°
2026-04-24 23:56 4.57605 -74.13803 11411 ft 199 kts 82°
2026-04-24 23:56 4.57958 -74.12490 11156 ft 198 kts 66°
2026-04-24 23:57 4.58649 -74.11298 10895 ft 196 kts 51°
2026-04-24 23:57 4.59611 -74.10343 10644 ft 194 kts 36°
2026-04-24 23:57 4.60776 -74.09675 10390 ft 192 kts 21°
2026-04-24 23:57 4.62019 -74.09338 10137 ft 180 kts
2026-04-24 23:58 4.63216 -74.09314 9887 ft 166 kts 354°
2026-04-24 23:58 4.64324 -74.09547 9664 ft 160 kts 341°
2026-04-24 23:58 4.65326 -74.09999 9457 ft 157 kts 329°
2026-04-24 23:58 4.66191 -74.10633 9247 ft 154 kts 317°
2026-04-24 23:59 4.66901 -74.11428 9061 ft 153 kts 306°
2026-04-24 23:59 4.67540 -74.12281 8866 ft 151 kts 307°
2026-04-24 23:59 4.68174 -74.13113 8677 ft 150 kts 306°
2026-04-24 23:59 4.68802 -74.13937 8483 ft 149 kts 304°
2026-04-25 00:00 4.69386 -74.14711 8371 ft 133 kts 306°
2026-04-25 00:00 4.69834 -74.15304 8372 ft 75 kts 307°
2026-04-25 00:00 4.70005 -74.15527 8373 ft 25 kts 323°
2026-04-25 00:00 4.70133 -74.15467 8373 ft 17 kts 38°
2026-04-25 00:01 4.70148 -74.15455 8373 ft 0 kts 38°
2026-04-25 00:02 4.70150 -74.15454 8373 ft 1 kts 38°
2026-04-25 00:02 4.70173 -74.15436 8373 ft 7 kts 38°
2026-04-25 00:02 4.70173 -74.15392 8373 ft 9 kts 127°
2026-04-25 00:02 4.70127 -74.15334 8370 ft 12 kts 127°
2026-04-25 00:03 4.70077 -74.15268 8373 ft 12 kts 127°
2026-04-25 00:03 4.70024 -74.15198 8373 ft 13 kts 127°
2026-04-25 00:03 4.69973 -74.15132 8373 ft 13 kts 127°
2026-04-25 00:03 4.69916 -74.15055 8373 ft 14 kts 127°
2026-04-25 00:04 4.69857 -74.14976 8372 ft 12 kts 126°
2026-04-25 00:04 4.69822 -74.14928 8373 ft 8 kts 126°
2026-04-25 00:04 4.69778 -74.14871 8373 ft 11 kts 128°
2026-04-25 00:04 4.69773 -74.14803 8374 ft 11 kts 46°
2026-04-25 00:05 4.69839 -74.14754 8371 ft 13 kts 36°
2026-04-25 00:05 4.69913 -74.14698 8371 ft 14 kts 37°
2026-04-25 00:05 4.69990 -74.14640 8373 ft 13 kts 37°
2026-04-25 00:05 4.70046 -74.14598 8373 ft 6 kts 47°
2026-04-25 00:06 4.70038 -74.14566 8373 ft 2 kts 123°
2026-04-25 00:06 4.70023 -74.14549 8372 ft 8 kts 134°
2026-04-25 00:06 4.69965 -74.14542 8373 ft 9 kts 186°
2026-04-25 00:06 4.69936 -74.14546 8373 ft 0 kts 186°